Time,TemperatureF,DewpointF,PressureIn,WindDirection,WindDirectionDegrees,WindSpeedMPH,WindSpeedGustMPH,Humidity,HourlyPrecipIn,Conditions,Clouds,dailyrainin,SoftwareType,DateUTC
2013-09-28 00:01:00,62.6,53.8,30.24,SE,135,0.0,0.0,73,0.00,,OVC050,0.00,VWS V14.01,2013-09-28 04:01:00,
2013-09-28 00:03:00,62.6,53.8,30.24,SE,135,0.0,0.0,73,0.00,,OVC050,0.00,VWS V14.01,2013-09-28 04:03:00,
2013-09-28 00:08:00,62.6,53.5,30.24,SE,135,0.0,0.0,72,0.00,,OVC050,0.00,VWS V14.01,2013-09-28 04:08:00,
2013-09-28 00:13:00,62.6,53.8,30.24,SE,135,0.0,0.0,73,0.00,,OVC050,0.00,VWS V14.01,2013-09-28 04:13:00,
2013-09-28 00:18:00,62.6,53.8,30.24,SE,135,0.0,0.0,73,0.00,,OVC050,0.00,VWS V14.01,2013-09-28 04:18:00,
2013-09-28 00:23:00,62.6,54.6,30.24,SE,135,0.0,0.0,75,0.00,,OVC050,0.00,VWS V14.01,2013-09-28 04:23:00,
2013-09-28 00:28:00,62.4,54.8,30.24,SE,135,0.0,0.0,76,0.00,,OVC050,0.00,VWS V14.01,2013-09-28 04:28:00,
2013-09-28 00:33:00,62.2,54.6,30.24,SE,135,0.0,0.0,76,0.00,,OVC050,0.00,VWS V14.01,2013-09-28 04:33:00,
2013-09-28 00:38:00,62.1,54.4,30.24,SE,135,0.0,0.0,76,0.00,,OVC050,0.00,VWS V14.01,2013-09-28 04:38:00,
2013-09-28 00:44:00,61.9,54.2,30.24,SE,135,0.0,0.0,76,0.00,,OVC050,0.00,VWS V14.01,2013-09-28 04:44:00,
2013-09-28 00:49:00,61.7,54.1,30.24,SE,135,0.0,0.0,76,0.00,,OVC050,0.00,VWS V14.01,2013-09-28 04:49:00,
2013-09-28 00:54:00,61.5,54.2,30.24,SE,135,0.0,0.0,77,0.00,,OVC050,0.00,VWS V14.01,2013-09-28 04:54:00,
2013-09-28 00:59:00,61.3,54.8,30.24,SE,135,0.0,0.0,79,0.00,,OVC050,0.00,VWS V14.01,2013-09-28 04:59:00,
2013-09-28 01:04:00,61.3,55.1,30.24,SE,135,0.0,0.0,80,0.00,,OVC060,0.00,VWS V14.01,2013-09-28 05:04:00,
2013-09-28 01:09:00,61.2,55.0,30.24,SE,135,0.0,0.0,80,0.00,,OVC060,0.00,VWS V14.01,2013-09-28 05:09:00,
2013-09-28 01:14:00,61.0,55.1,30.24,SE,135,0.0,0.0,81,0.00,,OVC060,0.00,VWS V14.01,2013-09-28 05:14:00,
2013-09-28 01:19:00,61.0,55.5,30.24,SE,135,0.0,0.0,82,0.00,,OVC060,0.00,VWS V14.01,2013-09-28 05:19:00,
2013-09-28 01:24:00,60.8,55.3,30.24,SE,135,0.0,0.0,82,0.00,,OVC060,0.00,VWS V14.01,2013-09-28 05:24:00,
2013-09-28 01:29:00,60.6,55.4,30.24,SE,135,0.0,0.0,83,0.00,,OVC060,0.00,VWS V14.01,2013-09-28 05:29:00,
2013-09-28 01:34:00,60.4,55.3,30.24,SE,135,0.0,0.0,83,0.00,,OVC060,0.00,VWS V14.01,2013-09-28 05:34:00,
2013-09-28 01:39:00,60.3,55.4,30.24,SE,135,0.0,0.0,84,0.00,,OVC060,0.00,VWS V14.01,2013-09-28 05:39:00,
2013-09-28 01:44:00,59.9,55.1,30.24,SE,135,0.0,0.0,84,0.00,,OVC060,0.00,VWS V14.01,2013-09-28 05:44:00,
2013-09-28 01:49:00,59.5,55.0,30.24,SE,135,0.0,0.0,85,0.00,,OVC060,0.00,VWS V14.01,2013-09-28 05:49:00,
2013-09-28 01:54:00,59.2,54.7,30.24,SE,135,0.0,0.0,85,0.00,,OVC060,0.00,VWS V14.01,2013-09-28 05:54:00,
2013-09-28 01:59:00,58.8,54.7,30.24,SE,135,0.0,0.0,86,0.00,,OVC060,0.00,VWS V14.01,2013-09-28 05:59:00,
2013-09-28 02:04:00,58.5,54.3,30.24,SE,135,0.0,0.0,86,0.00,,OVC060,0.00,VWS V14.01,2013-09-28 06:04:00,
2013-09-28 02:09:00,58.3,54.4,30.24,SE,135,0.0,0.0,87,0.00,,OVC060,0.00,VWS V14.01,2013-09-28 06:09:00,
2013-09-28 02:14:00,58.1,54.3,30.24,SE,135,0.0,0.0,87,0.00,,OVC060,0.00,VWS V14.01,2013-09-28 06:14:00,
2013-09-28 02:19:00,57.9,54.4,30.24,SE,135,0.0,0.0,88,0.00,,OVC060,0.00,VWS V14.01,2013-09-28 06:19:00,
2013-09-28 02:24:00,57.7,54.5,30.24,SE,135,0.0,0.0,89,0.00,,OVC060,0.00,VWS V14.01,2013-09-28 06:24:00,
2013-09-28 02:29:00,57.6,54.7,30.24,SE,135,0.0,0.0,90,0.00,,OVC060,0.00,VWS V14.01,2013-09-28 06:29:00,
2013-09-28 02:34:00,57.4,54.8,30.24,SE,135,0.0,0.0,91,0.00,,OVC060,0.00,VWS V14.01,2013-09-28 06:34:00,
2013-09-28 02:39:00,57.2,54.9,30.24,SE,135,0.0,0.0,92,0.00,,OVC060,0.00,VWS V14.01,2013-09-28 06:39:00,
2013-09-28 02:44:00,57.0,55.0,30.24,SE,135,0.0,0.0,93,0.00,,BKN060,0.00,VWS V14.01,2013-09-28 06:44:00,
2013-09-28 02:49:00,56.8,54.8,30.24,SE,135,0.0,0.0,93,0.00,,BKN060,0.00,VWS V14.01,2013-09-28 06:49:00,
2013-09-28 02:54:00,56.8,55.1,30.24,SE,135,0.0,0.0,94,0.00,,BKN060,0.00,VWS V14.01,2013-09-28 06:54:00,
2013-09-28 02:59:00,56.8,55.1,30.24,SE,135,0.0,0.0,94,0.00,,BKN060,0.00,VWS V14.01,2013-09-28 06:59:00,
2013-09-28 03:04:00,56.8,55.4,30.24,SE,135,0.0,0.0,95,0.00,,BKN041,0.00,VWS V14.01,2013-09-28 07:04:00,
2013-09-28 03:09:00,56.8,55.4,30.24,SE,135,0.0,0.0,95,0.00,,BKN041,0.00,VWS V14.01,2013-09-28 07:09:00,
2013-09-28 03:14:00,56.8,55.4,30.24,SE,135,0.0,0.0,95,0.00,,BKN041,0.00,VWS V14.01,2013-09-28 07:14:00,
2013-09-28 03:19:00,57.0,55.6,30.24,SE,135,0.0,0.0,95,0.00,,BKN041,0.00,VWS V14.01,2013-09-28 07:19:00,
2013-09-28 03:24:00,57.2,55.8,30.24,SE,135,0.0,0.0,95,0.00,,OVC041,0.00,VWS V14.01,2013-09-28 07:24:00,
2013-09-28 03:29:00,57.2,56.1,30.24,SE,135,0.0,0.0,96,0.00,,OVC041,0.00,VWS V14.01,2013-09-28 07:29:00,
2013-09-28 03:34:00,57.4,56.2,30.24,SE,135,0.0,0.0,96,0.00,,OVC041,0.00,VWS V14.01,2013-09-28 07:34:00,
2013-09-28 03:39:00,57.6,56.4,30.24,SE,135,0.0,0.0,96,0.00,,OVC041,0.00,VWS V14.01,2013-09-28 07:39:00,
2013-09-28 03:44:00,57.6,56.4,30.24,SE,135,0.0,0.0,96,0.00,,OVC048,0.00,VWS V14.01,2013-09-28 07:44:00,
2013-09-28 03:49:00,57.7,56.6,30.24,SE,135,0.0,0.0,96,0.00,,OVC048,0.00,VWS V14.01,2013-09-28 07:49:00,
2013-09-28 03:54:00,57.7,56.6,30.24,SE,135,0.0,0.0,96,0.00,,OVC048,0.00,VWS V14.01,2013-09-28 07:54:00,
2013-09-28 03:59:00,57.7,56.6,30.24,SE,135,0.0,0.0,96,0.00,,OVC048,0.00,VWS V14.01,2013-09-28 07:59:00,
2013-09-28 04:04:00,57.9,56.8,30.24,SE,135,0.0,0.0,96,0.00,,OVC048,0.00,VWS V14.01,2013-09-28 08:04:00,
2013-09-28 04:09:00,58.1,57.0,30.24,SE,135,0.0,0.0,96,0.00,,OVC048,0.00,VWS V14.01,2013-09-28 08:09:00,
2013-09-28 04:14:00,58.1,57.0,30.24,SE,135,0.0,0.0,96,0.00,,OVC048,0.00,VWS V14.01,2013-09-28 08:14:00,
2013-09-28 04:19:00,58.1,57.0,30.24,SE,135,0.0,0.0,96,0.00,,OVC048,0.00,VWS V14.01,2013-09-28 08:19:00,
2013-09-28 04:24:00,58.1,57.0,30.24,SE,135,0.0,0.0,96,0.00,,OVC048,0.00,VWS V14.01,2013-09-28 08:24:00,
2013-09-28 04:29:00,58.1,57.0,30.24,SE,135,0.0,0.0,96,0.00,,OVC048,0.00,VWS V14.01,2013-09-28 08:29:00,
2013-09-28 04:34:00,57.9,56.8,30.24,SE,135,0.0,0.0,96,0.00,,OVC048,0.00,VWS V14.01,2013-09-28 08:34:00,
2013-09-28 04:39:00,57.9,56.8,30.24,SE,135,0.0,0.0,96,0.00,,OVC048,0.00,VWS V14.01,2013-09-28 08:39:00,
2013-09-28 04:44:00,57.7,56.6,30.24,SE,135,0.0,0.0,96,0.00,,OVC048,0.00,VWS V14.01,2013-09-28 08:44:00,
2013-09-28 04:49:00,57.6,56.4,30.24,SE,135,0.0,0.0,96,0.00,,OVC048,0.00,VWS V14.01,2013-09-28 08:49:00,
2013-09-28 04:54:00,57.2,56.1,30.24,SE,135,0.0,0.0,96,0.00,,OVC048,0.00,VWS V14.01,2013-09-28 08:54:00,
2013-09-28 04:59:00,57.2,56.1,30.24,SE,135,0.0,0.0,96,0.00,,OVC048,0.00,VWS V14.01,2013-09-28 08:59:00,
2013-09-28 05:04:00,56.8,56.0,30.24,SE,135,0.0,0.0,97,0.00,,OVC050,0.00,VWS V14.01,2013-09-28 09:04:00,
2013-09-28 05:09:00,56.7,55.8,30.24,SE,135,0.0,0.0,97,0.00,,OVC050,0.00,VWS V14.01,2013-09-28 09:09:00,
2013-09-28 05:14:00,56.5,55.6,30.24,SE,135,0.0,0.0,97,0.00,,OVC050,0.00,VWS V14.01,2013-09-28 09:14:00,
2013-09-28 05:19:00,56.3,55.5,30.24,SE,135,0.0,0.0,97,0.00,,OVC050,0.00,VWS V14.01,2013-09-28 09:19:00,
2013-09-28 05:24:00,56.3,55.5,30.24,SE,135,0.0,0.0,97,0.00,,OVC050,0.00,VWS V14.01,2013-09-28 09:24:00,
2013-09-28 05:29:00,56.3,55.8,30.24,SE,135,0.0,0.0,98,0.00,,OVC050,0.00,VWS V14.01,2013-09-28 09:29:00,
2013-09-28 05:34:00,56.3,55.8,30.24,SE,135,0.0,0.0,98,0.00,,OVC050,0.00,VWS V14.01,2013-09-28 09:34:00,
2013-09-28 05:39:00,56.5,55.9,30.24,SE,135,0.0,0.0,98,0.00,,OVC050,0.00,VWS V14.01,2013-09-28 09:39:00,
2013-09-28 05:44:00,56.5,55.9,30.24,SE,135,0.0,0.0,98,0.00,,OVC050,0.00,VWS V14.01,2013-09-28 09:44:00,
2013-09-28 05:49:00,56.7,56.1,30.24,SE,135,0.0,0.0,98,0.00,,OVC050,0.00,VWS V14.01,2013-09-28 09:49:00,
2013-09-28 05:54:00,56.7,56.1,30.24,SE,135,0.0,0.0,98,0.00,,OVC050,0.00,VWS V14.01,2013-09-28 09:54:00,
2013-09-28 05:59:00,56.8,56.3,30.24,SE,135,0.0,0.0,98,0.00,,OVC050,0.00,VWS V14.01,2013-09-28 09:59:00,
2013-09-28 06:04:00,57.0,56.5,30.24,SE,135,0.0,0.0,98,0.00,,OVC050,0.00,VWS V14.01,2013-09-28 10:04:00,
2013-09-28 06:09:00,57.0,56.5,30.24,SE,135,0.0,0.0,98,0.00,,OVC050,0.00,VWS V14.01,2013-09-28 10:09:00,
2013-09-28 06:14:00,57.2,56.6,30.24,SE,135,0.0,0.0,98,0.00,,OVC050,0.00,VWS V14.01,2013-09-28 10:14:00,
2013-09-28 06:19:00,57.2,56.6,30.24,SE,135,0.0,0.0,98,0.00,,OVC050,0.00,VWS V14.01,2013-09-28 10:19:00,
2013-09-28 06:24:00,57.4,56.8,30.24,SE,135,0.0,0.0,98,0.00,,OVC050,0.00,VWS V14.01,2013-09-28 10:24:00,
2013-09-28 06:29:00,57.4,56.8,30.24,SE,135,0.0,0.0,98,0.00,,OVC050,0.00,VWS V14.01,2013-09-28 10:29:00,
2013-09-28 06:34:00,57.6,57.0,30.24,SE,135,0.0,0.0,98,0.00,,OVC050,0.00,VWS V14.01,2013-09-28 10:34:00,
2013-09-28 06:39:00,57.6,57.0,30.24,SE,135,0.0,0.0,98,0.00,,OVC050,0.00,VWS V14.01,2013-09-28 10:39:00,
2013-09-28 06:44:00,57.6,57.0,30.24,SE,135,0.0,0.0,98,0.00,,OVC050,0.00,VWS V14.01,2013-09-28 10:44:00,
2013-09-28 06:49:00,57.6,57.0,30.24,SE,135,0.0,0.0,98,0.00,,OVC050,0.00,VWS V14.01,2013-09-28 10:49:00,
2013-09-28 06:54:00,57.6,57.0,30.24,SE,135,0.0,0.0,98,0.00,,OVC050,0.00,VWS V14.01,2013-09-28 10:54:00,
2013-09-28 06:59:00,57.7,57.2,30.24,SE,135,0.0,0.0,98,0.00,,OVC050,0.00,VWS V14.01,2013-09-28 10:59:00,
2013-09-28 07:04:00,57.7,57.2,30.27,SE,135,0.0,0.0,98,0.00,,OVC050,0.00,VWS V14.01,2013-09-28 11:04:00,
2013-09-28 07:09:00,57.7,57.2,30.27,SE,135,0.0,0.0,98,0.00,,OVC050,0.00,VWS V14.01,2013-09-28 11:09:00,
2013-09-28 07:14:00,57.7,57.2,30.27,SE,135,0.0,0.0,98,0.00,,OVC050,0.00,VWS V14.01,2013-09-28 11:14:00,
2013-09-28 07:19:00,57.7,57.2,30.27,SE,135,0.0,0.0,98,0.00,,OVC050,0.00,VWS V14.01,2013-09-28 11:19:00,
2013-09-28 07:24:00,57.7,57.2,30.27,SE,135,0.0,0.0,98,0.00,,OVC050,0.00,VWS V14.01,2013-09-28 11:24:00,
2013-09-28 07:29:00,57.7,57.2,30.27,SE,135,0.0,0.0,98,0.00,,OVC050,0.00,VWS V14.01,2013-09-28 11:29:00,
2013-09-28 07:34:00,57.7,57.2,30.27,SE,135,0.0,0.0,98,0.00,,OVC050,0.00,VWS V14.01,2013-09-28 11:34:00,
2013-09-28 07:39:00,57.7,57.2,30.27,SE,135,0.0,0.0,98,0.00,,OVC050,0.00,VWS V14.01,2013-09-28 11:39:00,
2013-09-28 07:44:00,57.6,57.0,30.27,SE,135,0.0,0.0,98,0.00,,OVC050,0.00,VWS V14.01,2013-09-28 11:44:00,
2013-09-28 07:49:00,57.2,56.6,30.27,SE,135,0.0,0.0,98,0.00,,OVC050,0.00,VWS V14.01,2013-09-28 11:49:00,
2013-09-28 07:54:00,56.8,56.3,30.27,SE,135,0.0,0.0,98,0.00,,OVC050,0.00,VWS V14.01,2013-09-28 11:54:00,
2013-09-28 07:59:00,56.8,56.3,30.27,SE,135,0.0,0.0,98,0.00,,OVC050,0.00,VWS V14.01,2013-09-28 11:59:00,
2013-09-28 08:04:00,56.7,56.1,30.27,SE,135,0.0,0.0,98,0.00,,OVC050,0.00,VWS V14.01,2013-09-28 12:04:00,
2013-09-28 08:09:00,56.7,56.1,30.27,SE,135,0.0,0.0,98,0.00,,OVC050,0.00,VWS V14.01,2013-09-28 12:09:00,
2013-09-28 08:14:00,56.8,56.3,30.27,SE,135,0.0,0.0,98,0.00,,OVC050,0.00,VWS V14.01,2013-09-28 12:14:00,
2013-09-28 08:19:00,56.8,56.3,30.27,SE,135,0.0,0.0,98,0.00,,OVC050,0.00,VWS V14.01,2013-09-28 12:19:00,
2013-09-28 08:24:00,57.0,56.5,30.27,SE,135,0.0,0.0,98,0.00,,BKN050,0.00,VWS V14.01,2013-09-28 12:24:00,
2013-09-28 08:29:00,57.2,56.6,30.27,SE,135,0.0,0.0,98,0.00,,BKN050,0.00,VWS V14.01,2013-09-28 12:29:00,
2013-09-28 08:34:00,57.6,57.0,30.27,SE,135,0.0,0.0,98,0.00,,BKN050,0.00,VWS V14.01,2013-09-28 12:34:00,
2013-09-28 08:39:00,57.6,57.0,30.27,SE,135,0.0,0.0,98,0.00,,BKN050,0.00,VWS V14.01,2013-09-28 12:39:00,
2013-09-28 08:45:00,57.9,57.4,30.27,SE,135,0.0,0.0,98,0.00,,SCT050,0.00,VWS V14.01,2013-09-28 12:45:00,
2013-09-28 08:50:00,58.3,57.7,30.27,SE,135,0.0,0.0,98,0.00,,SCT050,0.00,VWS V14.01,2013-09-28 12:50:00,
2013-09-28 08:55:00,58.8,58.3,30.27,SE,135,0.0,0.0,98,0.00,,SCT050,0.00,VWS V14.01,2013-09-28 12:55:00,
2013-09-28 09:00:00,59.2,58.6,30.27,SE,135,0.0,0.0,98,0.00,,SCT050,0.00,VWS V14.01,2013-09-28 13:00:00,
2013-09-28 09:05:00,59.5,58.7,30.30,SE,135,0.0,0.0,97,0.00,,BKN031,0.00,VWS V14.01,2013-09-28 13:05:00,
2013-09-28 09:10:00,60.1,58.9,30.30,SE,135,0.0,0.0,96,0.00,,BKN031,0.00,VWS V14.01,2013-09-28 13:10:00,
2013-09-28 09:15:00,60.6,58.9,30.30,SE,135,0.0,0.0,94,0.00,,BKN031,0.00,VWS V14.01,2013-09-28 13:15:00,
2013-09-28 09:20:00,60.8,58.5,30.30,SE,135,0.0,0.0,92,0.00,,BKN031,0.00,VWS V14.01,2013-09-28 13:20:00,
2013-09-28 09:25:00,61.3,58.4,30.30,SE,135,0.0,0.0,90,0.00,,BKN031,0.00,VWS V14.01,2013-09-28 13:25:00,
2013-09-28 09:30:00,61.7,58.4,30.30,SE,135,0.0,0.0,89,0.00,,BKN031,0.00,VWS V14.01,2013-09-28 13:30:00,
2013-09-28 09:35:00,62.1,57.5,30.30,SE,135,0.0,0.0,85,0.00,,BKN031,0.00,VWS V14.01,2013-09-28 13:35:00,
2013-09-28 09:40:00,62.6,57.0,30.30,SE,135,0.0,0.0,82,0.00,,BKN031,0.00,VWS V14.01,2013-09-28 13:40:00,
2013-09-28 09:45:00,63.3,57.0,30.30,SE,135,0.0,0.0,80,0.00,,OVC031,0.00,VWS V14.01,2013-09-28 13:45:00,
2013-09-28 09:50:00,63.5,57.2,30.30,SE,135,0.0,0.0,80,0.00,,OVC031,0.00,VWS V14.01,2013-09-28 13:50:00,
2013-09-28 09:55:00,64.2,56.5,30.30,SE,135,0.0,0.0,76,0.00,,OVC031,0.00,VWS V14.01,2013-09-28 13:55:00,
2013-09-28 10:00:00,64.4,54.4,30.30,SE,135,0.0,0.0,70,0.00,,OVC031,0.00,VWS V14.01,2013-09-28 14:00:00,
2013-09-28 10:05:00,64.8,54.0,30.30,SE,135,0.0,0.0,68,0.00,,OVC031,0.00,VWS V14.01,2013-09-28 14:05:00,
2013-09-28 10:10:00,65.1,54.3,30.30,SE,135,0.0,0.0,68,0.00,,OVC031,0.00,VWS V14.01,2013-09-28 14:10:00,
2013-09-28 10:15:00,65.5,53.8,30.30,SE,135,0.0,0.0,66,0.00,,OVC031,0.00,VWS V14.01,2013-09-28 14:15:00,
2013-09-28 10:20:00,65.7,53.6,30.30,SE,135,0.0,0.0,65,0.00,,OVC031,0.00,VWS V14.01,2013-09-28 14:20:00,
2013-09-28 10:25:00,65.7,53.2,30.30,SE,135,0.0,0.0,64,0.00,,OVC033,0.00,VWS V14.01,2013-09-28 14:25:00,
2013-09-28 10:30:00,65.3,52.8,30.30,SE,135,0.0,0.0,64,0.00,,OVC033,0.00,VWS V14.01,2013-09-28 14:30:00,
2013-09-28 10:35:00,65.8,53.3,30.30,SE,135,0.0,0.0,64,0.00,,OVC033,0.00,VWS V14.01,2013-09-28 14:35:00,
2013-09-28 10:40:00,66.0,53.1,30.30,SE,135,0.0,0.0,63,0.00,,OVC033,0.00,VWS V14.01,2013-09-28 14:40:00,
2013-09-28 10:45:00,66.4,52.5,30.30,SE,135,0.0,0.0,61,0.00,,OVC033,0.00,VWS V14.01,2013-09-28 14:45:00,
2013-09-28 10:50:00,66.7,52.4,30.30,ESE,112,0.0,0.0,60,0.00,,OVC033,0.00,VWS V14.01,2013-09-28 14:50:00,
2013-09-28 10:55:00,66.9,51.7,30.30,SSW,202,3.6,3.6,58,0.00,,OVC033,0.00,VWS V14.01,2013-09-28 14:55:00,
2013-09-28 11:00:00,66.6,52.3,30.30,SW,225,0.0,2.2,60,0.00,,OVC033,0.00,VWS V14.01,2013-09-28 15:00:00,
2013-09-28 11:05:00,66.9,51.7,30.30,SW,225,0.0,0.0,58,0.00,,OVC033,0.00,VWS V14.01,2013-09-28 15:05:00,
2013-09-28 11:10:00,67.3,51.1,30.30,SW,225,0.0,0.0,56,0.00,,OVC033,0.00,VWS V14.01,2013-09-28 15:10:00,
2013-09-28 11:15:00,66.6,49.9,30.30,SSE,158,3.1,3.1,55,0.00,,OVC033,0.00,VWS V14.01,2013-09-28 15:15:00,
2013-09-28 11:20:00,66.6,50.4,30.30,SSE,158,0.0,0.0,56,0.00,,OVC033,0.00,VWS V14.01,2013-09-28 15:20:00,
2013-09-28 11:25:00,66.7,51.0,30.30,SSE,158,0.0,0.0,57,0.00,,OVC031,0.00,VWS V14.01,2013-09-28 15:25:00,
2013-09-28 11:30:00,66.2,50.5,30.30,SSE,158,0.0,0.0,57,0.00,,OVC031,0.00,VWS V14.01,2013-09-28 15:30:00,
2013-09-28 11:35:00,66.2,50.5,30.30,SSE,158,0.0,2.2,57,0.00,,OVC031,0.00,VWS V14.01,2013-09-28 15:35:00,
2013-09-28 11:40:00,66.9,53.5,30.30,SSE,158,0.0,0.0,62,0.00,,OVC031,0.00,VWS V14.01,2013-09-28 15:40:00,
2013-09-28 11:45:00,68.0,49.7,30.30,SSE,158,0.0,0.0,52,0.00,,BKN060,0.00,VWS V14.01,2013-09-28 15:45:00,
2013-09-28 11:50:00,67.8,49.0,30.30,ESE,112,3.1,3.1,51,0.00,,BKN060,0.00,VWS V14.01,2013-09-28 15:50:00,
2013-09-28 11:55:00,67.6,48.4,30.30,ESE,112,0.0,0.0,50,0.00,,BKN060,0.00,VWS V14.01,2013-09-28 15:55:00,
2013-09-28 12:00:00,67.5,48.7,30.30,ESE,112,2.2,2.2,51,0.00,,BKN060,0.00,VWS V14.01,2013-09-28 16:00:00,
2013-09-28 12:05:00,68.0,49.7,30.30,ESE,112,0.0,0.0,52,0.00,,SCT060,0.00,VWS V14.01,2013-09-28 16:05:00,
2013-09-28 12:10:00,67.1,49.4,30.30,SE,135,0.0,0.0,53,0.00,,SCT060,0.00,VWS V14.01,2013-09-28 16:10:00,
2013-09-28 12:15:00,67.3,48.5,30.30,SE,135,0.0,0.0,51,0.00,,SCT060,0.00,VWS V14.01,2013-09-28 16:15:00,
2013-09-28 12:20:00,68.0,48.2,30.30,SSE,158,2.7,2.7,49,0.00,,SCT060,0.00,VWS V14.01,2013-09-28 16:20:00,
2013-09-28 12:25:00,68.0,47.6,30.30,SSW,202,2.2,3.6,48,0.00,,BKN050,0.00,VWS V14.01,2013-09-28 16:25:00,
2013-09-28 12:30:00,68.4,49.0,30.30,South,180,3.1,4.0,50,0.00,,BKN050,0.00,VWS V14.01,2013-09-28 16:30:00,
2013-09-28 12:35:00,68.5,48.1,30.30,SSE,158,0.0,0.0,48,0.00,,BKN050,0.00,VWS V14.01,2013-09-28 16:35:00,
2013-09-28 12:40:00,68.7,48.8,30.30,South,180,2.2,2.7,49,0.00,,OVC050,0.00,VWS V14.01,2013-09-28 16:40:00,
2013-09-28 12:45:00,69.3,48.2,30.30,SSE,158,0.0,0.0,47,0.00,,OVC050,0.00,VWS V14.01,2013-09-28 16:45:00,
2013-09-28 12:50:00,69.1,48.6,30.30,SSE,158,0.0,0.0,48,0.00,,OVC050,0.00,VWS V14.01,2013-09-28 16:50:00,
2013-09-28 12:55:00,69.4,48.3,30.30,SSE,158,0.0,0.0,47,0.00,,OVC050,0.00,VWS V14.01,2013-09-28 16:55:00,
2013-09-28 13:00:00,69.6,48.5,30.30,SSE,158,2.7,2.7,47,0.00,,OVC050,0.00,VWS V14.01,2013-09-28 17:00:00,
2013-09-28 13:05:00,69.3,47.0,30.27,SSW,202,3.1,3.1,45,0.00,,OVC050,0.00,VWS V14.01,2013-09-28 17:05:00,
2013-09-28 13:10:00,68.9,47.3,30.27,South,180,2.2,2.2,46,0.00,,OVC050,0.00,VWS V14.01,2013-09-28 17:10:00,
2013-09-28 13:15:00,69.3,47.6,30.27,SSW,202,0.0,0.0,46,0.00,,OVC050,0.00,VWS V14.01,2013-09-28 17:15:00,
2013-09-28 13:20:00,69.4,47.8,30.27,SSW,202,2.2,2.7,46,0.00,,OVC050,0.00,VWS V14.01,2013-09-28 17:20:00,
2013-09-28 13:26:00,70.0,47.1,30.27,SSW,202,2.2,2.2,44,0.00,,OVC050,0.00,VWS V14.01,2013-09-28 17:26:00,
2013-09-28 13:31:00,70.3,47.4,30.27,SW,225,3.6,3.6,44,0.00,,OVC050,0.00,VWS V14.01,2013-09-28 17:31:00,
2013-09-28 13:36:00,69.6,46.8,30.27,ESE,112,0.0,0.0,44,0.00,,OVC050,0.00,VWS V14.01,2013-09-28 17:36:00,
2013-09-28 13:41:00,69.8,46.9,30.27,SSE,158,0.0,2.2,44,0.00,,BKN050,0.00,VWS V14.01,2013-09-28 17:41:00,
2013-09-28 13:46:00,71.1,48.1,30.27,SE,135,2.2,2.7,44,0.00,,BKN050,0.00,VWS V14.01,2013-09-28 17:46:00,
2013-09-28 13:51:00,72.7,48.3,30.27,SE,135,3.6,3.6,42,0.00,,BKN050,0.00,VWS V14.01,2013-09-28 17:51:00,
2013-09-28 13:56:00,72.1,47.2,30.27,SSE,158,2.2,2.2,41,0.00,,BKN050,0.00,VWS V14.01,2013-09-28 17:56:00,
2013-09-28 14:01:00,71.8,46.2,30.27,SSW,202,0.0,0.0,40,0.00,,OVC050,0.00,VWS V14.01,2013-09-28 18:01:00,
2013-09-28 14:06:00,72.7,47.0,30.24,SSW,202,0.0,2.7,40,0.00,,OVC050,0.00,VWS V14.01,2013-09-28 18:06:00,
2013-09-28 14:11:00,71.6,45.4,30.24,SSW,202,0.0,0.0,39,0.00,,OVC050,0.00,VWS V14.01,2013-09-28 18:11:00,
2013-09-28 14:16:00,72.5,46.8,30.24,SSW,202,0.0,0.0,40,0.00,,OVC050,0.00,VWS V14.01,2013-09-28 18:16:00,
2013-09-28 14:21:00,73.2,48.1,30.24,SSW,202,0.0,0.0,41,0.00,,OVC050,0.00,VWS V14.01,2013-09-28 18:21:00,
2013-09-28 14:26:00,73.0,46.0,30.24,SE,135,3.6,3.6,38,0.00,,OVC050,0.00,VWS V14.01,2013-09-28 18:26:00,
2013-09-28 14:31:00,73.4,46.3,30.24,SE,135,3.1,3.1,38,0.00,,OVC050,0.00,VWS V14.01,2013-09-28 18:31:00,
2013-09-28 14:36:00,73.6,46.4,30.24,SSE,158,0.0,0.0,38,0.00,,OVC050,0.00,VWS V14.01,2013-09-28 18:36:00,
2013-09-28 14:41:00,72.7,44.9,30.24,SSW,202,2.2,2.2,37,0.00,,OVC050,0.00,VWS V14.01,2013-09-28 18:41:00,
2013-09-28 14:46:00,72.7,48.3,30.24,SSE,158,4.0,4.0,42,0.00,,OVC050,0.00,VWS V14.01,2013-09-28 18:46:00,
2013-09-28 14:52:00,73.9,46.0,30.24,ESE,112,0.0,0.0,37,0.00,,OVC050,0.00,VWS V14.01,2013-09-28 18:52:00,
2013-09-28 14:57:00,74.7,45.2,30.24,ESE,112,2.2,2.2,35,0.00,,OVC050,0.00,VWS V14.01,2013-09-28 18:57:00,
2013-09-28 15:02:00,74.1,45.5,30.24,ESE,112,0.0,0.0,36,0.00,,BKN050,0.00,VWS V14.01,2013-09-28 19:02:00,
2013-09-28 15:07:00,74.3,44.9,30.24,South,180,4.0,4.0,35,0.00,,BKN050,0.00,VWS V14.01,2013-09-28 19:07:00,
2013-09-28 15:12:00,73.9,47.5,30.24,ESE,112,0.0,0.0,39,0.00,,BKN050,0.00,VWS V14.01,2013-09-28 19:12:00,
2013-09-28 15:17:00,74.7,46.7,30.24,SSE,158,0.0,4.0,37,0.00,,BKN050,0.00,VWS V14.01,2013-09-28 19:17:00,
2013-09-28 15:22:00,75.2,44.9,30.24,ENE,68,2.7,4.0,34,0.00,,BKN050,0.00,VWS V14.01,2013-09-28 19:22:00,
2013-09-28 15:27:00,75.2,45.7,30.24,SSW,202,2.7,3.6,35,0.00,,BKN050,0.00,VWS V14.01,2013-09-28 19:27:00,
2013-09-28 15:32:00,73.9,46.0,30.24,SSW,202,0.0,2.2,37,0.00,,BKN050,0.00,VWS V14.01,2013-09-28 19:32:00,
2013-09-28 15:37:00,72.9,44.4,30.24,SSW,202,0.0,3.1,36,0.00,,BKN050,0.00,VWS V14.01,2013-09-28 19:37:00,
2013-09-28 15:42:00,73.0,47.3,30.24,SE,135,2.2,4.5,40,0.00,,BKN050,0.00,VWS V14.01,2013-09-28 19:42:00,
2013-09-28 15:47:00,73.0,46.6,30.24,SSE,158,0.0,2.2,39,0.00,,BKN050,0.00,VWS V14.01,2013-09-28 19:47:00,
2013-09-28 15:52:00,72.7,46.3,30.24,SSE,158,0.0,0.0,39,0.00,,BKN050,0.00,VWS V14.01,2013-09-28 19:52:00,
2013-09-28 15:57:00,71.8,45.5,30.24,SSE,158,2.7,2.7,39,0.00,,BKN050,0.00,VWS V14.01,2013-09-28 19:57:00,
2013-09-28 16:02:00,71.2,47.0,30.24,SSE,158,0.0,2.2,42,0.00,,OVC050,0.00,VWS V14.01,2013-09-28 20:02:00,
2013-09-28 16:07:00,71.6,46.0,30.24,SSE,158,0.0,0.0,40,0.00,,OVC050,0.00,VWS V14.01,2013-09-28 20:07:00,
2013-09-28 16:12:00,71.6,47.3,30.24,SSE,158,2.2,2.2,42,0.00,,OVC050,0.00,VWS V14.01,2013-09-28 20:12:00,
2013-09-28 16:17:00,71.1,46.8,30.24,SSE,158,2.7,4.0,42,0.00,,OVC050,0.00,VWS V14.01,2013-09-28 20:17:00,
2013-09-28 16:23:00,70.0,46.5,30.21,SE,135,2.7,4.0,43,0.00,,OVC050,0.00,VWS V14.01,2013-09-28 20:23:00,
2013-09-28 16:28:00,69.4,47.2,30.21,SE,135,0.0,0.0,45,0.00,,OVC050,0.00,VWS V14.01,2013-09-28 20:28:00,
2013-09-28 16:33:00,68.9,47.9,30.21,SSE,158,0.0,0.0,47,0.00,,OVC050,0.00,VWS V14.01,2013-09-28 20:33:00,
2013-09-28 16:38:00,68.9,47.9,30.24,SSE,158,0.0,0.0,47,0.00,,OVC050,0.00,VWS V14.01,2013-09-28 20:38:00,
2013-09-28 16:43:00,69.3,47.6,30.24,ESE,112,0.0,0.0,46,0.00,,OVC050,0.00,VWS V14.01,2013-09-28 20:43:00,
2013-09-28 16:48:00,69.6,47.4,30.24,ESE,112,0.0,0.0,45,0.00,,OVC050,0.00,VWS V14.01,2013-09-28 20:48:00,
2013-09-28 16:53:00,70.0,47.1,30.24,ESE,112,0.0,0.0,44,0.00,,OVC050,0.00,VWS V14.01,2013-09-28 20:53:00,
2013-09-28 16:58:00,70.3,47.4,30.24,SSW,202,2.2,2.2,44,0.00,,OVC050,0.00,VWS V14.01,2013-09-28 20:58:00,
2013-09-28 17:03:00,70.5,47.6,30.21,SSE,158,0.0,0.0,44,0.00,,OVC050,0.00,VWS V14.01,2013-09-28 21:03:00,
2013-09-28 17:08:00,70.3,47.4,30.21,SSE,158,0.0,0.0,44,0.00,,OVC050,0.00,VWS V14.01,2013-09-28 21:08:00,
2013-09-28 17:14:00,69.8,46.9,30.21,SW,225,0.0,0.0,44,0.00,,OVC050,0.00,VWS V14.01,2013-09-28 21:14:00,
2013-09-28 17:19:00,69.4,46.6,30.21,South,180,2.7,2.7,44,0.00,,OVC050,0.00,VWS V14.01,2013-09-28 21:19:00,
2013-09-28 17:24:00,69.1,46.9,30.21,South,180,0.0,0.0,45,0.00,,BKN050,0.00,VWS V14.01,2013-09-28 21:24:00,
2013-09-28 17:29:00,69.1,46.9,30.21,South,180,0.0,0.0,45,0.00,,BKN050,0.00,VWS V14.01,2013-09-28 21:29:00,
2013-09-28 17:34:00,69.3,47.6,30.24,South,180,2.2,2.2,46,0.00,,BKN050,0.00,VWS V14.01,2013-09-28 21:34:00,
2013-09-28 17:39:00,69.1,48.0,30.24,South,180,2.2,2.2,47,0.00,,BKN050,0.00,VWS V14.01,2013-09-28 21:39:00,
2013-09-28 17:44:00,69.1,48.0,30.24,SSE,158,0.0,3.1,47,0.00,,BKN050,0.00,VWS V14.01,2013-09-28 21:44:00,
2013-09-28 17:49:00,68.7,48.3,30.24,SSE,158,0.0,0.0,48,0.00,,BKN050,0.00,VWS V14.01,2013-09-28 21:49:00,
2013-09-28 17:54:00,68.4,47.9,30.24,SSE,158,2.7,2.7,48,0.00,,BKN050,0.00,VWS V14.01,2013-09-28 21:54:00,
2013-09-28 17:59:00,68.2,47.2,30.24,SSE,158,0.0,0.0,47,0.00,,BKN050,0.00,VWS V14.01,2013-09-28 21:59:00,
2013-09-28 18:04:00,67.8,48.0,30.21,SSE,158,0.0,0.0,49,0.00,,SCT050,0.00,VWS V14.01,2013-09-28 22:04:00,
2013-09-28 18:09:00,67.5,48.2,30.21,SSE,158,0.0,0.0,50,0.00,,SCT050,0.00,VWS V14.01,2013-09-28 22:09:00,
2013-09-28 18:14:00,66.9,48.2,30.21,SSW,202,2.2,2.2,51,0.00,,SCT050,0.00,VWS V14.01,2013-09-28 22:14:00,
2013-09-28 18:19:00,66.7,48.6,30.24,SSW,202,0.0,0.0,52,0.00,,SCT050,0.00,VWS V14.01,2013-09-28 22:19:00,
2013-09-28 18:24:00,66.4,49.2,30.24,SSW,202,0.0,0.0,54,0.00,,CLR,0.00,VWS V14.01,2013-09-28 22:24:00,
2013-09-28 18:29:00,66.0,50.4,30.24,SSW,202,0.0,0.0,57,0.00,,CLR,0.00,VWS V14.01,2013-09-28 22:29:00,
2013-09-28 18:34:00,65.7,51.0,30.21,SSW,202,0.0,0.0,59,0.00,,CLR,0.00,VWS V14.01,2013-09-28 22:34:00,
2013-09-28 18:39:00,65.1,51.3,30.21,SSW,202,0.0,0.0,61,0.00,,CLR,0.00,VWS V14.01,2013-09-28 22:39:00,
2013-09-28 18:44:00,64.8,51.9,30.21,SSW,202,0.0,2.2,63,0.00,,CLR,0.00,VWS V14.01,2013-09-28 22:44:00,
2013-09-28 18:49:00,64.2,53.0,30.21,SSW,202,0.0,0.0,67,0.00,,CLR,0.00,VWS V14.01,2013-09-28 22:49:00,
2013-09-28 18:54:00,63.9,52.7,30.21,SSW,202,0.0,0.0,67,0.00,,CLR,0.00,VWS V14.01,2013-09-28 22:54:00,
2013-09-28 18:59:00,63.3,52.6,30.21,SSW,202,0.0,0.0,68,0.00,,CLR,0.00,VWS V14.01,2013-09-28 22:59:00,
2013-09-28 19:04:00,62.8,52.9,30.21,SSW,202,0.0,0.0,70,0.00,,CLR,0.00,VWS V14.01,2013-09-28 23:04:00,
2013-09-28 19:09:00,62.2,52.7,30.21,SSW,202,0.0,0.0,71,0.00,,CLR,0.00,VWS V14.01,2013-09-28 23:09:00,
2013-09-28 19:14:00,61.9,52.8,30.21,SSW,202,0.0,0.0,72,0.00,,CLR,0.00,VWS V14.01,2013-09-28 23:14:00,
2013-09-28 19:19:00,61.3,52.6,30.21,SSW,202,0.0,0.0,73,0.00,,CLR,0.00,VWS V14.01,2013-09-28 23:19:00,
2013-09-28 19:24:00,60.8,52.8,30.21,SSW,202,0.0,0.0,75,0.00,,SCT049,0.00,VWS V14.01,2013-09-28 23:24:00,
2013-09-28 19:29:00,60.4,52.8,30.21,SSW,202,0.0,0.0,76,0.00,,SCT049,0.00,VWS V14.01,2013-09-28 23:29:00,
2013-09-28 19:34:00,60.1,53.2,30.21,SSW,202,0.0,0.0,78,0.00,,SCT049,0.00,VWS V14.01,2013-09-28 23:34:00,
2013-09-28 19:39:00,59.7,53.9,30.21,SSW,202,0.0,0.0,81,0.00,,SCT049,0.00,VWS V14.01,2013-09-28 23:39:00,
2013-09-28 19:44:00,59.4,53.9,30.21,SSW,202,0.0,0.0,82,0.00,,BKN047,0.00,VWS V14.01,2013-09-28 23:44:00,
2013-09-28 19:49:00,59.2,54.0,30.21,SSW,202,0.0,0.0,83,0.00,,BKN047,0.00,VWS V14.01,2013-09-28 23:49:00,
2013-09-28 19:54:00,58.8,54.3,30.21,SSW,202,0.0,0.0,85,0.00,,BKN047,0.00,VWS V14.01,2013-09-28 23:54:00,
2013-09-28 19:59:00,58.6,54.5,30.21,SSW,202,0.0,0.0,86,0.00,,BKN047,0.00,VWS V14.01,2013-09-28 23:59:00,
2013-09-28 20:04:00,58.1,54.6,30.24,SSW,202,0.0,0.0,88,0.00,,OVC047,0.00,VWS V14.01,2013-09-29 00:04:00,
2013-09-28 20:09:00,57.9,54.7,30.24,SSW,202,0.0,0.0,89,0.00,,OVC047,0.00,VWS V14.01,2013-09-29 00:09:00,
2013-09-28 20:14:00,57.7,54.5,30.24,SSW,202,0.0,0.0,89,0.00,,OVC047,0.00,VWS V14.01,2013-09-29 00:14:00,
2013-09-28 20:19:00,57.6,55.0,30.24,SSW,202,0.0,0.0,91,0.00,,OVC047,0.00,VWS V14.01,2013-09-29 00:19:00,
2013-09-28 20:24:00,57.4,55.1,30.24,SSW,202,0.0,0.0,92,0.00,,OVC047,0.00,VWS V14.01,2013-09-29 00:24:00,
2013-09-28 20:29:00,57.2,55.2,30.24,SSW,202,0.0,0.0,93,0.00,,OVC047,0.00,VWS V14.01,2013-09-29 00:29:00,
2013-09-28 20:34:00,57.0,55.3,30.24,SSW,202,0.0,0.0,94,0.00,,OVC047,0.00,VWS V14.01,2013-09-29 00:34:00,
2013-09-28 20:39:00,57.0,55.6,30.24,SSW,202,0.0,0.0,95,0.00,,OVC047,0.00,VWS V14.01,2013-09-29 00:39:00,
2013-09-28 20:45:00,56.8,55.4,30.24,SSW,202,0.0,0.0,95,0.00,,OVC047,0.00,VWS V14.01,2013-09-29 00:45:00,
2013-09-28 20:50:00,56.8,55.7,30.24,SSW,202,0.0,0.0,96,0.00,,OVC047,0.00,VWS V14.01,2013-09-29 00:50:00,
2013-09-28 20:55:00,56.5,55.4,30.24,SSW,202,0.0,0.0,96,0.00,,OVC047,0.00,VWS V14.01,2013-09-29 00:55:00,
2013-09-28 21:00:00,56.3,55.2,30.24,SSW,202,0.0,0.0,96,0.00,,OVC047,0.00,VWS V14.01,2013-09-29 01:00:00,
2013-09-28 21:05:00,56.3,55.2,30.24,SSW,202,0.0,0.0,96,0.00,,OVC050,0.00,VWS V14.01,2013-09-29 01:05:00,
2013-09-28 21:10:00,56.3,55.5,30.24,SSW,202,0.0,0.0,97,0.00,,OVC050,0.00,VWS V14.01,2013-09-29 01:10:00,
2013-09-28 21:16:00,56.3,55.5,30.24,SSW,202,0.0,0.0,97,0.00,,OVC050,0.00,VWS V14.01,2013-09-29 01:16:00,
2013-09-28 21:21:00,56.5,55.6,30.24,SSW,202,0.0,0.0,97,0.00,,OVC050,0.00,VWS V14.01,2013-09-29 01:21:00,
2013-09-28 21:26:00,56.7,56.1,30.24,SSW,202,0.0,0.0,98,0.00,,OVC050,0.00,VWS V14.01,2013-09-29 01:26:00,
2013-09-28 21:31:00,56.8,56.3,30.24,SSW,202,0.0,0.0,98,0.00,,OVC050,0.00,VWS V14.01,2013-09-29 01:31:00,
2013-09-28 21:36:00,57.0,56.5,30.24,SSW,202,0.0,0.0,98,0.00,,OVC050,0.00,VWS V14.01,2013-09-29 01:36:00,
2013-09-28 21:41:00,57.2,56.6,30.24,SSW,202,0.0,0.0,98,0.00,,OVC050,0.00,VWS V14.01,2013-09-29 01:41:00,
2013-09-28 21:46:00,57.2,56.6,30.24,SSW,202,0.0,0.0,98,0.00,,OVC050,0.00,VWS V14.01,2013-09-29 01:46:00,
2013-09-28 21:51:00,57.4,56.5,30.24,SSW,202,0.0,0.0,97,0.00,,OVC050,0.00,VWS V14.01,2013-09-29 01:51:00,
2013-09-28 21:56:00,57.6,56.7,30.24,SSW,202,0.0,0.0,97,0.00,,OVC050,0.00,VWS V14.01,2013-09-29 01:56:00,
2013-09-28 22:01:00,57.6,56.7,30.24,SSW,202,0.0,0.0,97,0.00,,OVC044,0.00,VWS V14.01,2013-09-29 02:01:00,
2013-09-28 22:06:00,57.7,56.9,30.24,SSW,202,0.0,0.0,97,0.00,,OVC044,0.00,VWS V14.01,2013-09-29 02:06:00,
2013-09-28 22:11:00,57.9,57.1,30.24,SSW,202,0.0,0.0,97,0.00,,OVC044,0.00,VWS V14.01,2013-09-29 02:11:00,
2013-09-28 22:16:00,57.9,56.8,30.24,SSW,202,0.0,0.0,96,0.00,,OVC044,0.00,VWS V14.01,2013-09-29 02:16:00,
2013-09-28 22:21:00,58.1,56.7,30.24,SSW,202,0.0,0.0,95,0.00,,OVC050,0.00,VWS V14.01,2013-09-29 02:21:00,
2013-09-28 22:26:00,58.3,56.6,30.24,SSW,202,0.0,0.0,94,0.00,,OVC050,0.00,VWS V14.01,2013-09-29 02:26:00,
2013-09-28 22:31:00,58.5,56.7,30.24,SSW,202,0.0,0.0,94,0.00,,OVC050,0.00,VWS V14.01,2013-09-29 02:31:00,
2013-09-28 22:36:00,58.6,56.3,30.24,SSW,202,0.0,0.0,92,0.00,,OVC050,0.00,VWS V14.01,2013-09-29 02:36:00,
2013-09-28 22:41:00,58.6,56.3,30.24,SSW,202,0.0,0.0,92,0.00,,OVC050,0.00,VWS V14.01,2013-09-29 02:41:00,
2013-09-28 22:47:00,58.6,56.0,30.24,SSW,202,0.0,0.0,91,0.00,,OVC050,0.00,VWS V14.01,2013-09-29 02:47:00,
2013-09-28 22:52:00,58.8,55.9,30.24,SSW,202,0.0,0.0,90,0.00,,OVC050,0.00,VWS V14.01,2013-09-29 02:52:00,
2013-09-28 22:57:00,58.8,55.9,30.24,SSW,202,0.0,0.0,90,0.00,,OVC050,0.00,VWS V14.01,2013-09-29 02:57:00,
2013-09-28 23:02:00,58.8,55.9,30.24,SSW,202,0.0,0.0,90,0.00,,OVC050,0.00,VWS V14.01,2013-09-29 03:02:00,
2013-09-28 23:08:00,58.8,55.9,30.27,SSW,202,0.0,0.0,90,0.00,,OVC050,0.00,VWS V14.01,2013-09-29 03:08:00,
2013-09-28 23:13:00,58.6,55.1,30.27,SSW,202,0.0,0.0,88,0.00,,OVC050,0.00,VWS V14.01,2013-09-29 03:13:00,
2013-09-28 23:18:00,58.8,55.0,30.27,SSW,202,0.0,0.0,87,0.00,,OVC050,0.00,VWS V14.01,2013-09-29 03:18:00,
2013-09-28 23:23:00,58.8,54.7,30.24,SSW,202,0.0,0.0,86,0.00,,BKN050,0.00,VWS V14.01,2013-09-29 03:23:00,
2013-09-28 23:28:00,58.8,54.3,30.24,SSW,202,0.0,0.0,85,0.00,,BKN050,0.00,VWS V14.01,2013-09-29 03:28:00,
2013-09-28 23:33:00,58.6,54.2,30.24,SSW,202,0.0,0.0,85,0.00,,BKN050,0.00,VWS V14.01,2013-09-29 03:33:00,
2013-09-28 23:38:00,58.5,54.0,30.24,SSW,202,0.0,0.0,85,0.00,,BKN050,0.00,VWS V14.01,2013-09-29 03:38:00,
2013-09-28 23:43:00,58.3,53.8,30.24,SSW,202,0.0,0.0,85,0.00,,BKN048,0.00,VWS V14.01,2013-09-29 03:43:00,
2013-09-28 23:48:00,58.1,53.9,30.24,SSW,202,0.0,0.0,86,0.00,,BKN048,0.00,VWS V14.01,2013-09-29 03:48:00,
2013-09-28 23:53:00,57.9,53.8,30.24,SSW,202,0.0,0.0,86,0.00,,BKN048,0.00,VWS V14.01,2013-09-29 03:53:00,
2013-09-28 23:58:00,57.9,54.1,30.24,SSW,202,0.0,0.0,87,0.00,,BKN048,0.00,VWS V14.01,2013-09-29 03:58:00,